Time,TemperatureF,DewpointF,PressureIn,WindDirection,WindDirectionDegrees,WindSpeedMPH,WindSpeedGustMPH,Humidity,HourlyPrecipIn,Conditions,Clouds,dailyrainin,SoftwareType,DateUTC
2013-08-20 00:01:00,76.6,68.2,29.73,SSE,161,0.0,7.0,75,0.00,,,0.00,WUHU216DAVISVP2,2013-08-20 05:01:00,
2013-08-20 00:06:00,76.5,68.1,29.73,South,173,0.0,3.0,75,0.00,,,0.00,WUHU216DAVISVP2,2013-08-20 05:06:00,
2013-08-20 00:11:00,76.4,68.4,29.73,South,182,0.0,5.0,76,0.00,,,0.00,WUHU216DAVISVP2,2013-08-20 05:11:00,
2013-08-20 00:16:00,76.3,68.3,29.73,South,169,0.0,5.0,76,0.00,,,0.00,WUHU216DAVISVP2,2013-08-20 05:16:00,
2013-08-20 00:21:00,76.2,68.2,29.73,South,176,0.0,2.0,76,0.00,,,0.00,WUHU216DAVISVP2,2013-08-20 05:21:00,
2013-08-20 00:26:00,76.1,68.1,29.73,SSW,203,0.0,7.0,76,0.00,,,0.00,WUHU216DAVISVP2,2013-08-20 05:26:00,
2013-08-20 00:31:00,75.9,67.9,29.73,South,188,0.0,11.0,76,0.00,,,0.00,WUHU216DAVISVP2,2013-08-20 05:31:00,
2013-08-20 00:36:00,75.8,68.2,29.73,South,183,0.0,11.0,77,0.00,,,0.00,WUHU216DAVISVP2,2013-08-20 05:36:00,
2013-08-20 00:41:00,75.7,68.1,29.73,South,181,0.0,5.0,77,0.00,,,0.00,WUHU216DAVISVP2,2013-08-20 05:41:00,
2013-08-20 00:46:00,75.7,68.1,29.73,SSW,196,0.0,6.0,77,0.00,,,0.00,WUHU216DAVISVP2,2013-08-20 05:46:00,
2013-08-20 00:51:00,75.7,68.1,29.73,SSW,195,0.0,7.0,77,0.00,,,0.00,WUHU216DAVISVP2,2013-08-20 05:51:00,
2013-08-20 00:56:00,75.6,68.0,29.73,SSW,192,0.0,11.0,77,0.00,,,0.00,WUHU216DAVISVP2,2013-08-20 05:56:00,
2013-08-20 01:01:00,75.5,67.9,29.72,SSW,192,0.0,11.0,77,0.00,,,0.00,WUHU216DAVISVP2,2013-08-20 06:01:00,
2013-08-20 01:06:00,75.4,68.2,29.72,South,190,0.0,6.0,78,0.00,,,0.00,WUHU216DAVISVP2,2013-08-20 06:06:00,
2013-08-20 01:11:00,75.2,68.0,29.72,South,189,0.0,7.0,78,0.00,,,0.00,WUHU216DAVISVP2,2013-08-20 06:11:00,
2013-08-20 01:16:00,75.1,67.9,29.72,South,188,0.0,7.0,78,0.00,,,0.00,WUHU216DAVISVP2,2013-08-20 06:16:00,
2013-08-20 01:21:00,74.9,67.7,29.72,South,188,0.0,3.0,78,0.00,,,0.00,WUHU216DAVISVP2,2013-08-20 06:21:00,
2013-08-20 01:26:00,74.8,68.0,29.72,SSW,194,0.0,5.0,79,0.00,,,0.00,WUHU216DAVISVP2,2013-08-20 06:26:00,
2013-08-20 01:31:00,74.7,67.9,29.72,SSW,192,0.0,5.0,79,0.00,,,0.00,WUHU216DAVISVP2,2013-08-20 06:31:00,
2013-08-20 01:36:00,74.5,68.0,29.72,South,191,0.0,0.0,80,0.00,,,0.00,WUHU216DAVISVP2,2013-08-20 06:36:00,
2013-08-20 01:41:00,74.4,67.6,29.72,SSW,194,4.0,6.0,79,0.00,,,0.00,WUHU216DAVISVP2,2013-08-20 06:41:00,
2013-08-20 01:46:00,74.2,67.7,29.72,SSW,195,0.0,6.0,80,0.00,,,0.00,WUHU216DAVISVP2,2013-08-20 06:46:00,
2013-08-20 01:51:00,74.1,67.6,29.72,SSW,192,0.0,4.0,80,0.00,,,0.00,WUHU216DAVISVP2,2013-08-20 06:51:00,
2013-08-20 01:56:00,73.9,67.8,29.72,SSW,192,0.0,0.0,81,0.00,,,0.00,WUHU216DAVISVP2,2013-08-20 06:56:00,
2013-08-20 02:01:00,73.8,67.7,29.72,SSW,192,0.0,2.0,81,0.00,,,0.00,WUHU216DAVISVP2,2013-08-20 07:01:00,
2013-08-20 02:06:00,73.7,67.6,29.72,SSW,192,0.0,2.0,81,0.00,,,0.00,WUHU216DAVISVP2,2013-08-20 07:06:00,
2013-08-20 02:11:00,73.5,67.4,29.72,SSW,192,0.0,0.0,81,0.00,,,0.00,WUHU216DAVISVP2,2013-08-20 07:11:00,
2013-08-20 02:16:00,73.4,67.6,29.72,South,191,0.0,4.0,82,0.00,,,0.00,WUHU216DAVISVP2,2013-08-20 07:16:00,
2013-08-20 02:21:00,73.3,67.5,29.71,South,175,0.0,8.0,82,0.00,,,0.00,WUHU216DAVISVP2,2013-08-20 07:21:00,
2013-08-20 02:26:00,73.2,67.4,29.71,South,173,0.0,8.0,82,0.00,,,0.00,WUHU216DAVISVP2,2013-08-20 07:26:00,
2013-08-20 02:31:00,73.1,67.3,29.71,South,178,0.0,3.0,82,0.00,,,0.00,WUHU216DAVISVP2,2013-08-20 07:31:00,
2013-08-20 02:36:00,73.0,67.2,29.71,South,180,0.0,2.0,82,0.00,,,0.00,WUHU216DAVISVP2,2013-08-20 07:36:00,
2013-08-20 02:41:00,73.0,67.6,29.71,South,184,0.0,5.0,83,0.00,,,0.00,WUHU216DAVISVP2,2013-08-20 07:41:00,
2013-08-20 02:46:00,72.9,67.5,29.71,South,186,0.0,6.0,83,0.00,,,0.00,WUHU216DAVISVP2,2013-08-20 07:46:00,
2013-08-20 02:51:00,72.8,67.4,29.71,South,187,0.0,6.0,83,0.00,,,0.00,WUHU216DAVISVP2,2013-08-20 07:51:00,
2013-08-20 02:56:00,72.8,67.4,29.72,South,187,0.0,0.0,83,0.00,,,0.00,WUHU216DAVISVP2,2013-08-20 07:56:00,
2013-08-20 03:01:00,72.8,67.4,29.72,South,188,0.0,0.0,83,0.00,,,0.00,WUHU216DAVISVP2,2013-08-20 08:01:00,
2013-08-20 03:06:00,72.7,67.3,29.72,South,188,0.0,0.0,83,0.00,,,0.00,WUHU216DAVISVP2,2013-08-20 08:06:00,
2013-08-20 03:11:00,72.6,67.2,29.72,South,188,0.0,0.0,83,0.00,,,0.00,WUHU216DAVISVP2,2013-08-20 08:11:00,
2013-08-20 03:16:00,72.5,67.1,29.72,South,188,0.0,5.0,83,0.00,,,0.00,WUHU216DAVISVP2,2013-08-20 08:16:00,
2013-08-20 03:21:00,72.4,67.0,29.72,South,188,0.0,5.0,83,0.00,,,0.00,WUHU216DAVISVP2,2013-08-20 08:21:00,
2013-08-20 03:26:00,72.3,66.9,29.72,South,188,0.0,0.0,83,0.00,,,0.00,WUHU216DAVISVP2,2013-08-20 08:26:00,
2013-08-20 03:31:00,72.1,66.7,29.72,South,185,0.0,0.0,83,0.00,,,0.00,WUHU216DAVISVP2,2013-08-20 08:31:00,
2013-08-20 03:36:00,72.0,66.6,29.72,South,185,0.0,5.0,83,0.00,,,0.00,WUHU216DAVISVP2,2013-08-20 08:36:00,
2013-08-20 03:41:00,71.8,66.4,29.72,South,186,0.0,5.0,83,0.00,,,0.00,WUHU216DAVISVP2,2013-08-20 08:41:00,
2013-08-20 03:46:00,71.8,66.7,29.72,South,186,0.0,4.0,84,0.00,,,0.00,WUHU216DAVISVP2,2013-08-20 08:46:00,
2013-08-20 03:51:00,71.7,66.6,29.72,South,186,0.0,4.0,84,0.00,,,0.00,WUHU216DAVISVP2,2013-08-20 08:51:00,
2013-08-20 03:56:00,71.7,66.6,29.72,South,186,0.0,0.0,84,0.00,,,0.00,WUHU216DAVISVP2,2013-08-20 08:56:00,
2013-08-20 04:01:00,71.6,66.5,29.72,South,186,0.0,0.0,84,0.00,,,0.00,WUHU216DAVISVP2,2013-08-20 09:01:00,
2013-08-20 04:06:00,71.5,66.5,29.72,South,186,0.0,0.0,84,0.00,,,0.00,WUHU216DAVISVP2,2013-08-20 09:06:00,
2013-08-20 04:11:00,71.4,66.4,29.71,South,186,0.0,0.0,84,0.00,,,0.00,WUHU216DAVISVP2,2013-08-20 09:11:00,
2013-08-20 04:16:00,71.3,66.3,29.71,South,184,0.0,0.0,84,0.00,,,0.00,WUHU216DAVISVP2,2013-08-20 09:16:00,
2013-08-20 04:21:00,71.4,66.4,29.71,South,184,0.0,5.0,84,0.00,,,0.00,WUHU216DAVISVP2,2013-08-20 09:21:00,
2013-08-20 04:26:00,71.3,66.3,29.72,South,184,0.0,5.0,84,0.00,,,0.00,WUHU216DAVISVP2,2013-08-20 09:26:00,
2013-08-20 04:31:00,71.3,66.3,29.71,South,184,0.0,1.0,84,0.00,,,0.00,WUHU216DAVISVP2,2013-08-20 09:31:00,
2013-08-20 04:36:00,71.3,66.3,29.71,South,186,0.0,1.0,84,0.00,,,0.00,WUHU216DAVISVP2,2013-08-20 09:36:00,
2013-08-20 04:41:00,71.2,66.2,29.71,South,186,0.0,1.0,84,0.00,,,0.00,WUHU216DAVISVP2,2013-08-20 09:41:00,
2013-08-20 04:46:00,71.2,66.2,29.71,South,186,0.0,0.0,84,0.00,,,0.00,WUHU216DAVISVP2,2013-08-20 09:46:00,
2013-08-20 04:51:00,71.2,66.2,29.72,South,186,0.0,0.0,84,0.00,,,0.00,WUHU216DAVISVP2,2013-08-20 09:51:00,
2013-08-20 04:56:00,71.1,66.1,29.71,South,186,0.0,0.0,84,0.00,,,0.00,WUHU216DAVISVP2,2013-08-20 09:56:00,
2013-08-20 05:01:00,71.1,66.4,29.71,South,185,0.0,0.0,85,0.00,,,0.00,WUHU216DAVISVP2,2013-08-20 10:01:00,
2013-08-20 05:06:00,71.0,66.3,29.72,South,186,0.0,9.0,85,0.00,,,0.00,WUHU216DAVISVP2,2013-08-20 10:06:00,
2013-08-20 05:11:00,71.0,66.3,29.72,South,186,0.0,9.0,85,0.00,,,0.00,WUHU216DAVISVP2,2013-08-20 10:11:00,
2013-08-20 05:16:00,71.0,66.3,29.72,South,184,0.0,5.0,85,0.00,,,0.00,WUHU216DAVISVP2,2013-08-20 10:16:00,
2013-08-20 05:21:00,71.0,66.3,29.72,South,182,0.0,1.0,85,0.00,,,0.00,WUHU216DAVISVP2,2013-08-20 10:21:00,
2013-08-20 05:26:00,71.0,66.3,29.72,South,182,0.0,1.0,85,0.00,,,0.00,WUHU216DAVISVP2,2013-08-20 10:26:00,
2013-08-20 05:31:00,71.0,66.3,29.71,SSW,192,0.0,5.0,85,0.00,,,0.00,WUHU216DAVISVP2,2013-08-20 10:31:00,
2013-08-20 05:36:00,71.0,66.3,29.71,South,189,1.0,9.0,85,0.00,,,0.00,WUHU216DAVISVP2,2013-08-20 10:36:00,
2013-08-20 05:41:00,71.0,66.3,29.71,South,190,5.0,10.0,85,0.00,,,0.00,WUHU216DAVISVP2,2013-08-20 10:41:00,
2013-08-20 05:46:00,71.0,66.3,29.71,SSW,196,0.0,10.0,85,0.00,,,0.00,WUHU216DAVISVP2,2013-08-20 10:46:00,
2013-08-20 05:51:00,71.0,66.3,29.71,SSW,195,0.0,4.0,85,0.00,,,0.00,WUHU216DAVISVP2,2013-08-20 10:51:00,
2013-08-20 05:56:00,70.9,65.9,29.71,South,190,0.0,1.0,84,0.00,,,0.00,WUHU216DAVISVP2,2013-08-20 10:56:00,
2013-08-20 06:01:00,70.8,66.1,29.71,South,184,6.0,7.0,85,0.00,,,0.00,WUHU216DAVISVP2,2013-08-20 11:01:00,
2013-08-20 06:06:00,70.7,66.0,29.71,South,183,0.0,7.0,85,0.00,,,0.00,WUHU216DAVISVP2,2013-08-20 11:06:00,
2013-08-20 06:11:00,70.7,66.0,29.71,South,191,0.0,8.0,85,0.00,,,0.00,WUHU216DAVISVP2,2013-08-20 11:11:00,
2013-08-20 06:16:00,70.7,66.0,29.71,SSW,196,0.0,8.0,85,0.00,,,0.00,WUHU216DAVISVP2,2013-08-20 11:16:00,
2013-08-20 06:21:00,70.7,66.0,29.71,SSW,205,0.0,6.0,85,0.00,,,0.00,WUHU216DAVISVP2,2013-08-20 11:21:00,
2013-08-20 06:26:00,70.6,65.9,29.71,SSW,196,0.0,2.0,85,0.00,,,0.00,WUHU216DAVISVP2,2013-08-20 11:26:00,
2013-08-20 06:31:00,70.6,65.9,29.71,SSE,167,0.0,6.0,85,0.00,,,0.00,WUHU216DAVISVP2,2013-08-20 11:31:00,
2013-08-20 06:36:00,70.7,66.0,29.71,South,180,0.0,6.0,85,0.00,,,0.00,WUHU216DAVISVP2,2013-08-20 11:36:00,
2013-08-20 06:41:00,70.7,66.0,29.72,SSW,206,0.0,7.0,85,0.00,,,0.00,WUHU216DAVISVP2,2013-08-20 11:41:00,
2013-08-20 06:46:00,70.8,66.1,29.72,SSW,192,4.0,9.0,85,0.00,,,0.00,WUHU216DAVISVP2,2013-08-20 11:46:00,
2013-08-20 06:51:00,70.8,66.1,29.72,SSW,194,0.0,9.0,85,0.00,,,0.00,WUHU216DAVISVP2,2013-08-20 11:51:00,
2013-08-20 06:56:00,70.9,66.2,29.72,South,190,0.0,5.0,85,0.00,,,0.00,WUHU216DAVISVP2,2013-08-20 11:56:00,
2013-08-20 07:01:00,70.8,66.1,29.72,South,190,0.0,5.0,85,0.00,,,0.00,WUHU216DAVISVP2,2013-08-20 12:01:00,
2013-08-20 07:06:00,70.8,66.1,29.72,SSW,193,0.0,6.0,85,0.00,,,0.00,WUHU216DAVISVP2,2013-08-20 12:06:00,
2013-08-20 07:11:00,70.7,66.0,29.72,South,191,0.0,6.0,85,0.00,,,0.00,WUHU216DAVISVP2,2013-08-20 12:11:00,
2013-08-20 07:16:00,70.7,65.7,29.72,South,191,0.0,5.0,84,0.00,,,0.00,WUHU216DAVISVP2,2013-08-20 12:16:00,
2013-08-20 07:21:00,70.6,65.9,29.72,South,187,0.0,7.0,85,0.00,,,0.00,WUHU216DAVISVP2,2013-08-20 12:21:00,
2013-08-20 07:26:00,70.7,66.0,29.72,SSW,194,6.0,9.0,85,0.00,,,0.00,WUHU216DAVISVP2,2013-08-20 12:26:00,
2013-08-20 07:31:00,70.8,66.1,29.72,South,187,0.0,9.0,85,0.00,,,0.00,WUHU216DAVISVP2,2013-08-20 12:31:00,
2013-08-20 07:36:00,71.0,66.3,29.72,SSW,192,0.0,12.0,85,0.00,,,0.00,WUHU216DAVISVP2,2013-08-20 12:36:00,
2013-08-20 07:41:00,71.1,66.4,29.72,SSW,198,0.0,12.0,85,0.00,,,0.00,WUHU216DAVISVP2,2013-08-20 12:41:00,
2013-08-20 07:46:00,71.3,66.6,29.72,SSW,205,5.0,8.0,85,0.00,,,0.00,WUHU216DAVISVP2,2013-08-20 12:46:00,
2013-08-20 07:51:00,71.5,66.8,29.73,SSW,196,0.0,10.0,85,0.00,,,0.00,WUHU216DAVISVP2,2013-08-20 12:51:00,
2013-08-20 07:56:00,71.6,66.5,29.73,SSW,192,0.0,10.0,84,0.00,,,0.00,WUHU216DAVISVP2,2013-08-20 12:56:00,
2013-08-20 08:01:00,71.8,66.7,29.73,SSW,202,0.0,12.0,84,0.00,,,0.00,WUHU216DAVISVP2,2013-08-20 13:01:00,
2013-08-20 08:06:00,71.8,66.7,29.73,SSW,195,0.0,12.0,84,0.00,,,0.00,WUHU216DAVISVP2,2013-08-20 13:06:00,
2013-08-20 08:11:00,71.9,66.5,29.73,SSW,211,3.0,12.0,83,0.00,,,0.00,WUHU216DAVISVP2,2013-08-20 13:11:00,
2013-08-20 08:16:00,72.0,66.6,29.73,SSW,206,0.0,10.0,83,0.00,,,0.00,WUHU216DAVISVP2,2013-08-20 13:16:00,
2013-08-20 08:21:00,72.2,66.8,29.73,SSW,205,3.0,10.0,83,0.00,,,0.00,WUHU216DAVISVP2,2013-08-20 13:21:00,
2013-08-20 08:26:00,72.4,67.0,29.73,South,181,0.0,10.0,83,0.00,,,0.00,WUHU216DAVISVP2,2013-08-20 13:26:00,
2013-08-20 08:31:00,72.8,67.4,29.73,South,178,9.0,10.0,83,0.00,,,0.00,WUHU216DAVISVP2,2013-08-20 13:31:00,
2013-08-20 08:36:00,73.2,67.4,29.73,South,180,0.0,10.0,82,0.00,,,0.00,WUHU216DAVISVP2,2013-08-20 13:36:00,
2013-08-20 08:41:00,73.5,67.7,29.73,South,173,0.0,10.0,82,0.00,,,0.00,WUHU216DAVISVP2,2013-08-20 13:41:00,
2013-08-20 08:46:00,73.6,67.5,29.73,SSW,196,1.0,10.0,81,0.00,,,0.00,WUHU216DAVISVP2,2013-08-20 13:46:00,
2013-08-20 08:51:00,73.7,67.6,29.73,South,190,10.0,14.0,81,0.00,,,0.00,WUHU216DAVISVP2,2013-08-20 13:51:00,
2013-08-20 08:56:00,74.0,67.9,29.73,South,180,0.0,14.0,81,0.00,,,0.00,WUHU216DAVISVP2,2013-08-20 13:56:00,
2013-08-20 09:01:00,74.5,68.0,29.73,SSW,198,0.0,10.0,80,0.00,,,0.00,WUHU216DAVISVP2,2013-08-20 14:01:00,
2013-08-20 09:06:00,74.9,68.4,29.73,SSW,200,0.0,12.0,80,0.00,,,0.00,WUHU216DAVISVP2,2013-08-20 14:06:00,
2013-08-20 09:11:00,75.2,68.3,29.73,SSW,196,6.0,12.0,79,0.00,,,0.00,WUHU216DAVISVP2,2013-08-20 14:11:00,
2013-08-20 09:16:00,75.5,68.6,29.72,SSW,204,0.0,12.0,79,0.00,,,0.00,WUHU216DAVISVP2,2013-08-20 14:16:00,
2013-08-20 09:21:00,75.9,68.7,29.72,South,175,4.0,12.0,78,0.00,,,0.00,WUHU216DAVISVP2,2013-08-20 14:21:00,
2013-08-20 09:26:00,76.3,69.1,29.72,South,178,0.0,12.0,78,0.00,,,0.00,WUHU216DAVISVP2,2013-08-20 14:26:00,
2013-08-20 09:31:00,76.7,69.5,29.72,SSW,201,1.0,12.0,78,0.00,,,0.00,WUHU216DAVISVP2,2013-08-20 14:31:00,
2013-08-20 09:36:00,77.3,69.7,29.72,SSW,194,0.0,12.0,77,0.00,,,0.00,WUHU216DAVISVP2,2013-08-20 14:36:00,
2013-08-20 09:41:00,77.7,70.1,29.72,SSW,213,0.0,12.0,77,0.00,,,0.00,WUHU216DAVISVP2,2013-08-20 14:41:00,
2013-08-20 09:46:00,78.2,70.2,29.72,South,185,0.0,11.0,76,0.00,,,0.00,WUHU216DAVISVP2,2013-08-20 14:46:00,
2013-08-20 09:51:00,78.7,70.7,29.72,SSW,202,6.0,11.0,76,0.00,,,0.00,WUHU216DAVISVP2,2013-08-20 14:51:00,
2013-08-20 09:56:00,79.6,70.8,29.72,South,190,0.0,11.0,74,0.00,,,0.00,WUHU216DAVISVP2,2013-08-20 14:56:00,
2013-08-20 10:01:00,80.4,71.2,29.72,South,190,0.0,10.0,73,0.00,,,0.00,WUHU216DAVISVP2,2013-08-20 15:01:00,
2013-08-20 10:06:00,80.7,70.6,29.72,SSW,192,6.0,14.0,71,0.00,,,0.00,WUHU216DAVISVP2,2013-08-20 15:06:00,
2013-08-20 10:11:00,81.0,70.9,29.72,SSW,194,6.0,14.0,71,0.00,,,0.00,WUHU216DAVISVP2,2013-08-20 15:11:00,
2013-08-20 10:16:00,81.7,71.2,29.72,SW,229,4.0,12.0,70,0.00,,,0.00,WUHU216DAVISVP2,2013-08-20 15:16:00,
2013-08-20 10:21:00,82.3,71.4,29.72,South,179,9.0,12.0,69,0.00,,,0.00,WUHU216DAVISVP2,2013-08-20 15:21:00,
2013-08-20 10:26:00,82.6,71.2,29.72,SSW,195,0.0,12.0,68,0.00,,,0.00,WUHU216DAVISVP2,2013-08-20 15:26:00,
2013-08-20 10:31:00,83.2,71.4,29.72,South,186,5.0,14.0,67,0.00,,,0.00,WUHU216DAVISVP2,2013-08-20 15:31:00,
2013-08-20 10:36:00,83.6,71.7,29.72,South,183,4.0,18.0,67,0.00,,,0.00,WUHU216DAVISVP2,2013-08-20 15:36:00,
2013-08-20 10:41:00,84.2,71.9,29.72,SW,214,2.0,18.0,66,0.00,,,0.00,WUHU216DAVISVP2,2013-08-20 15:41:00,
2013-08-20 10:46:00,85.0,72.2,29.71,SSW,196,1.0,13.0,65,0.00,,,0.00,WUHU216DAVISVP2,2013-08-20 15:46:00,
2013-08-20 10:51:00,85.7,72.4,29.71,SSE,157,0.0,12.0,64,0.00,,,0.00,WUHU216DAVISVP2,2013-08-20 15:51:00,
2013-08-20 10:56:00,86.5,72.7,29.72,SSW,200,2.0,12.0,63,0.00,,,0.00,WUHU216DAVISVP2,2013-08-20 15:56:00,
2013-08-20 11:01:00,87.1,72.8,29.71,SSW,203,4.0,12.0,62,0.00,,,0.00,WUHU216DAVISVP2,2013-08-20 16:01:00,
2013-08-20 11:06:00,87.2,72.9,29.71,SSE,167,9.0,12.0,62,0.00,,,0.00,WUHU216DAVISVP2,2013-08-20 16:06:00,
2013-08-20 11:11:00,87.7,73.4,29.71,South,182,5.0,12.0,62,0.00,,,0.00,WUHU216DAVISVP2,2013-08-20 16:11:00,
2013-08-20 11:16:00,88.2,72.8,29.72,SSW,213,1.0,12.0,60,0.00,,,0.00,WUHU216DAVISVP2,2013-08-20 16:16:00,
2013-08-20 11:21:00,88.2,72.8,29.71,South,170,9.0,14.0,60,0.00,,,0.00,WUHU216DAVISVP2,2013-08-20 16:21:00,
2013-08-20 11:26:00,88.5,72.6,29.71,South,177,2.0,14.0,59,0.00,,,0.00,WUHU216DAVISVP2,2013-08-20 16:26:00,
2013-08-20 11:31:00,88.9,73.0,29.71,SSE,165,6.0,12.0,59,0.00,,,0.00,WUHU216DAVISVP2,2013-08-20 16:31:00,
2013-08-20 11:36:00,89.5,72.5,29.72,SSE,166,10.0,12.0,57,0.00,,,0.00,WUHU216DAVISVP2,2013-08-20 16:36:00,
2013-08-20 11:41:00,89.9,73.4,29.71,SSW,202,0.0,12.0,58,0.00,,,0.00,WUHU216DAVISVP2,2013-08-20 16:41:00,
2013-08-20 11:46:00,90.7,72.6,29.71,South,187,2.0,11.0,55,0.00,,,0.00,WUHU216DAVISVP2,2013-08-20 16:46:00,
2013-08-20 11:51:00,91.1,72.4,29.71,SSE,150,3.0,11.0,54,0.00,,,0.00,WUHU216DAVISVP2,2013-08-20 16:51:00,
2013-08-20 11:56:00,91.3,72.0,29.71,SSW,198,3.0,11.0,53,0.00,,,0.00,WUHU216DAVISVP2,2013-08-20 16:56:00,
2013-08-20 12:01:00,91.9,72.6,29.71,SSW,199,7.0,11.0,53,0.00,,,0.00,WUHU216DAVISVP2,2013-08-20 17:01:00,
2013-08-20 12:06:00,92.0,72.7,29.71,South,176,5.0,13.0,53,0.00,,,0.00,WUHU216DAVISVP2,2013-08-20 17:06:00,
2013-08-20 12:11:00,92.1,71.6,29.71,SSW,197,3.0,13.0,51,0.00,,,0.00,WUHU216DAVISVP2,2013-08-20 17:11:00,
2013-08-20 12:16:00,92.1,71.6,29.71,SSW,200,8.0,14.0,51,0.00,,,0.00,WUHU216DAVISVP2,2013-08-20 17:16:00,
2013-08-20 12:21:00,92.4,71.3,29.71,South,188,5.0,14.0,50,0.00,,,0.00,WUHU216DAVISVP2,2013-08-20 17:21:00,
2013-08-20 12:26:00,92.9,69.8,29.71,SSW,196,4.0,12.0,47,0.00,,,0.00,WUHU216DAVISVP2,2013-08-20 17:26:00,
2013-08-20 12:31:00,93.6,71.1,29.70,South,190,4.0,13.0,48,0.00,,,0.00,WUHU216DAVISVP2,2013-08-20 17:31:00,
2013-08-20 12:36:00,94.2,69.0,29.71,South,187,4.0,13.0,44,0.00,,,0.00,WUHU216DAVISVP2,2013-08-20 17:36:00,
2013-08-20 12:41:00,94.7,68.8,29.70,South,188,1.0,12.0,43,0.00,,,0.00,WUHU216DAVISVP2,2013-08-20 17:41:00,
2013-08-20 12:46:00,95.3,68.6,29.70,SSW,205,2.0,11.0,42,0.00,,,0.00,WUHU216DAVISVP2,2013-08-20 17:46:00,
2013-08-20 12:51:00,94.4,68.5,29.70,South,182,10.0,12.0,43,0.00,,,0.00,WUHU216DAVISVP2,2013-08-20 17:51:00,
2013-08-20 12:56:00,93.5,69.7,29.70,SSW,193,9.0,14.0,46,0.00,,,0.00,WUHU216DAVISVP2,2013-08-20 17:56:00,
2013-08-20 13:01:00,93.3,70.2,29.70,South,184,6.0,14.0,47,0.00,,,0.00,WUHU216DAVISVP2,2013-08-20 18:01:00,
2013-08-20 13:06:00,93.2,69.5,29.70,SSE,158,5.0,13.0,46,0.00,,,0.00,WUHU216DAVISVP2,2013-08-20 18:06:00,
2013-08-20 13:11:00,93.4,71.6,29.70,SSW,198,4.0,12.0,49,0.00,,,0.00,WUHU216DAVISVP2,2013-08-20 18:11:00,
2013-08-20 13:16:00,93.3,70.8,29.70,SSW,205,2.0,13.0,48,0.00,,,0.00,WUHU216DAVISVP2,2013-08-20 18:16:00,
2013-08-20 13:21:00,93.5,68.4,29.70,SSW,200,6.0,13.0,44,0.00,,,0.00,WUHU216DAVISVP2,2013-08-20 18:21:00,
2013-08-20 13:26:00,93.2,67.4,29.70,South,187,3.0,12.0,43,0.00,,,0.00,WUHU216DAVISVP2,2013-08-20 18:26:00,
2013-08-20 13:31:00,93.4,66.2,29.70,SW,222,10.0,14.0,41,0.00,,,0.00,WUHU216DAVISVP2,2013-08-20 18:31:00,
2013-08-20 13:36:00,93.5,67.0,29.70,SSW,196,6.0,14.0,42,0.00,,,0.00,WUHU216DAVISVP2,2013-08-20 18:36:00,
2013-08-20 13:41:00,93.9,70.1,29.69,SE,126,10.0,13.0,46,0.00,,,0.00,WUHU216DAVISVP2,2013-08-20 18:41:00,
2013-08-20 13:46:00,93.7,67.9,29.70,SSE,163,4.0,15.0,43,0.00,,,0.00,WUHU216DAVISVP2,2013-08-20 18:46:00,
2013-08-20 13:51:00,93.7,68.6,29.70,South,178,5.0,15.0,44,0.00,,,0.00,WUHU216DAVISVP2,2013-08-20 18:51:00,
2013-08-20 13:56:00,93.9,69.4,29.69,SSW,206,2.0,12.0,45,0.00,,,0.00,WUHU216DAVISVP2,2013-08-20 18:56:00,
2013-08-20 14:01:00,94.2,71.0,29.69,SSW,196,3.0,11.0,47,0.00,,,0.00,WUHU216DAVISVP2,2013-08-20 19:01:00,
2013-08-20 14:06:00,94.8,72.9,29.69,SSE,168,7.0,11.0,49,0.00,,,0.00,WUHU216DAVISVP2,2013-08-20 19:06:00,
2013-08-20 14:11:00,94.4,73.1,29.69,SSW,202,4.0,13.0,50,0.00,,,0.00,WUHU216DAVISVP2,2013-08-20 19:11:00,
2013-08-20 14:16:00,94.5,73.8,29.69,South,175,3.0,13.0,51,0.00,,,0.00,WUHU216DAVISVP2,2013-08-20 19:16:00,
2013-08-20 14:21:00,94.8,74.7,29.69,South,182,2.0,10.0,52,0.00,,,0.00,WUHU216DAVISVP2,2013-08-20 19:21:00,
2013-08-20 14:26:00,94.9,75.4,29.69,SSE,154,3.0,15.0,53,0.00,,,0.00,WUHU216DAVISVP2,2013-08-20 19:26:00,
2013-08-20 14:31:00,94.6,75.7,29.68,South,179,2.0,15.0,54,0.00,,,0.00,WUHU216DAVISVP2,2013-08-20 19:31:00,
2013-08-20 14:36:00,94.8,74.1,29.68,South,184,7.0,14.0,51,0.00,,,0.00,WUHU216DAVISVP2,2013-08-20 19:36:00,
2013-08-20 14:41:00,95.5,72.9,29.68,SSW,194,1.0,14.0,48,0.00,,,0.00,WUHU216DAVISVP2,2013-08-20 19:41:00,
2013-08-20 14:46:00,96.2,72.2,29.68,South,184,2.0,11.0,46,0.00,,,0.00,WUHU216DAVISVP2,2013-08-20 19:46:00,
2013-08-20 14:51:00,96.0,72.7,29.68,SSW,194,4.0,15.0,47,0.00,,,0.00,WUHU216DAVISVP2,2013-08-20 19:51:00,
2013-08-20 14:56:00,95.5,72.9,29.68,South,180,6.0,15.0,48,0.00,,,0.00,WUHU216DAVISVP2,2013-08-20 19:56:00,
2013-08-20 15:01:00,95.2,72.6,29.67,SSW,198,11.0,15.0,48,0.00,,,0.00,WUHU216DAVISVP2,2013-08-20 20:01:00,
2013-08-20 15:06:00,95.4,72.1,29.67,SSW,195,1.0,15.0,47,0.00,,,0.00,WUHU216DAVISVP2,2013-08-20 20:06:00,
2013-08-20 15:11:00,95.5,72.9,29.67,SSW,200,3.0,15.0,48,0.00,,,0.00,WUHU216DAVISVP2,2013-08-20 20:11:00,
2013-08-20 15:16:00,95.9,72.6,29.67,South,187,5.0,15.0,47,0.00,,,0.00,WUHU216DAVISVP2,2013-08-20 20:16:00,
2013-08-20 15:21:00,96.4,70.3,29.67,SSW,196,6.0,13.0,43,0.00,,,0.00,WUHU216DAVISVP2,2013-08-20 20:21:00,
2013-08-20 15:26:00,96.3,70.9,29.66,SW,215,6.0,16.0,44,0.00,,,0.00,WUHU216DAVISVP2,2013-08-20 20:26:00,
2013-08-20 15:31:00,96.5,70.4,29.66,South,177,11.0,17.0,43,0.00,,,0.00,WUHU216DAVISVP2,2013-08-20 20:31:00,
2013-08-20 15:36:00,96.5,71.1,29.66,South,190,6.0,17.0,44,0.00,,,0.00,WUHU216DAVISVP2,2013-08-20 20:36:00,
2013-08-20 15:41:00,96.6,70.5,29.66,South,169,2.0,15.0,43,0.00,,,0.00,WUHU216DAVISVP2,2013-08-20 20:41:00,
2013-08-20 15:46:00,96.7,71.3,29.66,SW,236,9.0,15.0,44,0.00,,,0.00,WUHU216DAVISVP2,2013-08-20 20:46:00,
2013-08-20 15:51:00,96.9,70.8,29.66,South,187,9.0,15.0,43,0.00,,,0.00,WUHU216DAVISVP2,2013-08-20 20:51:00,
2013-08-20 15:56:00,96.9,70.1,29.66,SSW,192,16.0,16.0,42,0.00,,,0.00,WUHU216DAVISVP2,2013-08-20 20:56:00,
2013-08-20 16:01:00,96.8,71.4,29.66,South,175,0.0,16.0,44,0.00,,,0.00,WUHU216DAVISVP2,2013-08-20 21:01:00,
2013-08-20 16:06:00,96.8,71.4,29.65,SSE,159,14.0,15.0,44,0.00,,,0.00,WUHU216DAVISVP2,2013-08-20 21:06:00,
2013-08-20 16:11:00,96.7,72.0,29.65,South,184,14.0,18.0,45,0.00,,,0.00,WUHU216DAVISVP2,2013-08-20 21:11:00,
2013-08-20 16:16:00,96.3,70.2,29.65,SSW,192,10.0,18.0,43,0.00,,,0.00,WUHU216DAVISVP2,2013-08-20 21:16:00,
2013-08-20 16:21:00,96.2,70.9,29.65,South,184,2.0,17.0,44,0.00,,,0.00,WUHU216DAVISVP2,2013-08-20 21:21:00,
2013-08-20 16:26:00,96.4,70.3,29.65,South,178,4.0,17.0,43,0.00,,,0.00,WUHU216DAVISVP2,2013-08-20 21:26:00,
2013-08-20 16:31:00,96.4,70.3,29.65,SSE,159,5.0,17.0,43,0.00,,,0.00,WUHU216DAVISVP2,2013-08-20 21:31:00,
2013-08-20 16:36:00,96.3,70.9,29.65,SSE,166,3.0,17.0,44,0.00,,,0.00,WUHU216DAVISVP2,2013-08-20 21:36:00,
2013-08-20 16:41:00,96.3,71.6,29.65,SSW,211,2.0,17.0,45,0.00,,,0.00,WUHU216DAVISVP2,2013-08-20 21:41:00,
2013-08-20 16:46:00,96.3,71.6,29.65,SSW,195,11.0,18.0,45,0.00,,,0.00,WUHU216DAVISVP2,2013-08-20 21:46:00,
2013-08-20 16:51:00,96.0,71.4,29.65,South,182,14.0,18.0,45,0.00,,,0.00,WUHU216DAVISVP2,2013-08-20 21:51:00,
2013-08-20 16:56:00,95.7,71.1,29.65,SSW,198,12.0,17.0,45,0.00,,,0.00,WUHU216DAVISVP2,2013-08-20 21:56:00,
2013-08-20 17:01:00,95.7,71.7,29.65,South,173,3.0,16.0,46,0.00,,,0.00,WUHU216DAVISVP2,2013-08-20 22:01:00,
2013-08-20 17:06:00,95.8,71.2,29.65,SSW,200,3.0,14.0,45,0.00,,,0.00,WUHU216DAVISVP2,2013-08-20 22:06:00,
2013-08-20 17:11:00,95.6,71.7,29.65,South,171,5.0,19.0,46,0.00,,,0.00,WUHU216DAVISVP2,2013-08-20 22:11:00,
2013-08-20 17:16:00,95.3,70.7,29.64,SSW,198,5.0,19.0,45,0.00,,,0.00,WUHU216DAVISVP2,2013-08-20 22:16:00,
2013-08-20 17:21:00,95.1,71.9,29.64,SSW,205,6.0,15.0,47,0.00,,,0.00,WUHU216DAVISVP2,2013-08-20 22:21:00,
2013-08-20 17:26:00,95.1,71.9,29.64,SSE,166,11.0,16.0,47,0.00,,,0.00,WUHU216DAVISVP2,2013-08-20 22:26:00,
2013-08-20 17:31:00,94.9,71.7,29.64,South,175,9.0,16.0,47,0.00,,,0.00,WUHU216DAVISVP2,2013-08-20 22:31:00,
2013-08-20 17:36:00,94.8,71.4,29.64,SSW,196,6.0,19.0,47,0.00,,,0.00,WUHU216DAVISVP2,2013-08-20 22:36:00,
2013-08-20 17:41:00,94.7,71.5,29.64,South,187,10.0,19.0,47,0.00,,,0.00,WUHU216DAVISVP2,2013-08-20 22:41:00,
2013-08-20 17:46:00,94.6,72.0,29.64,SSE,163,9.0,18.0,48,0.00,,,0.00,WUHU216DAVISVP2,2013-08-20 22:46:00,
2013-08-20 17:51:00,94.4,71.9,29.64,SSW,200,5.0,17.0,48,0.00,,,0.00,WUHU216DAVISVP2,2013-08-20 22:51:00,
2013-08-20 17:56:00,94.2,72.3,29.64,South,188,14.0,16.0,49,0.00,,,0.00,WUHU216DAVISVP2,2013-08-20 22:56:00,
2013-08-20 18:01:00,93.9,72.6,29.64,South,188,5.0,16.0,50,0.00,,,0.00,WUHU216DAVISVP2,2013-08-20 23:01:00,
2013-08-20 18:06:00,93.8,72.6,29.64,South,190,2.0,18.0,50,0.00,,,0.00,WUHU216DAVISVP2,2013-08-20 23:06:00,
2013-08-20 18:11:00,93.7,73.1,29.64,SSE,157,6.0,18.0,51,0.00,,,0.00,WUHU216DAVISVP2,2013-08-20 23:11:00,
2013-08-20 18:16:00,93.6,73.6,29.64,SSE,155,3.0,16.0,52,0.00,,,0.00,WUHU216DAVISVP2,2013-08-20 23:16:00,
2013-08-20 18:21:00,93.5,73.5,29.64,SSW,192,5.0,16.0,52,0.00,,,0.00,WUHU216DAVISVP2,2013-08-20 23:21:00,
2013-08-20 18:26:00,93.1,73.7,29.64,SE,134,13.0,16.0,53,0.00,,,0.00,WUHU216DAVISVP2,2013-08-20 23:26:00,
2013-08-20 18:31:00,93.0,73.6,29.64,South,190,1.0,15.0,53,0.00,,,0.00,WUHU216DAVISVP2,2013-08-20 23:31:00,
2013-08-20 18:36:00,92.9,73.5,29.64,South,179,4.0,15.0,53,0.00,,,0.00,WUHU216DAVISVP2,2013-08-20 23:36:00,
2013-08-20 18:41:00,92.5,73.7,29.64,SE,135,4.0,13.0,54,0.00,,,0.00,WUHU216DAVISVP2,2013-08-20 23:41:00,
2013-08-20 18:46:00,92.4,74.2,29.64,South,174,6.0,15.0,55,0.00,,,0.00,WUHU216DAVISVP2,2013-08-20 23:46:00,
2013-08-20 18:51:00,92.2,74.0,29.64,South,175,3.0,15.0,55,0.00,,,0.00,WUHU216DAVISVP2,2013-08-20 23:51:00,
2013-08-20 18:56:00,92.0,73.8,29.64,South,179,13.0,13.0,55,0.00,,,0.00,WUHU216DAVISVP2,2013-08-20 23:56:00,
2013-08-20 19:01:00,91.7,73.5,29.64,SSE,157,6.0,15.0,55,0.00,,,0.00,WUHU216DAVISVP2,2013-08-21 00:01:00,
2013-08-20 19:06:00,91.4,73.2,29.64,South,178,4.0,18.0,55,0.00,,,0.00,WUHU216DAVISVP2,2013-08-21 00:06:00,
2013-08-20 19:11:00,91.2,73.6,29.64,SSW,196,2.0,18.0,56,0.00,,,0.00,WUHU216DAVISVP2,2013-08-21 00:11:00,
2013-08-20 19:16:00,91.0,73.9,29.64,SSW,198,0.0,12.0,57,0.00,,,0.00,WUHU216DAVISVP2,2013-08-21 00:16:00,
2013-08-20 19:21:00,90.9,73.8,29.63,South,178,5.0,14.0,57,0.00,,,0.00,WUHU216DAVISVP2,2013-08-21 00:21:00,
2013-08-20 19:26:00,90.6,74.1,29.63,South,191,1.0,14.0,58,0.00,,,0.00,WUHU216DAVISVP2,2013-08-21 00:26:00,
2013-08-20 19:31:00,90.4,73.9,29.63,South,174,1.0,13.0,58,0.00,,,0.00,WUHU216DAVISVP2,2013-08-21 00:31:00,
2013-08-20 19:36:00,90.1,73.6,29.63,South,184,2.0,11.0,58,0.00,,,0.00,WUHU216DAVISVP2,2013-08-21 00:36:00,
2013-08-20 19:41:00,89.8,73.9,29.63,South,177,3.0,13.0,59,0.00,,,0.00,WUHU216DAVISVP2,2013-08-21 00:41:00,
2013-08-20 19:46:00,89.6,73.7,29.63,South,188,1.0,13.0,59,0.00,,,0.00,WUHU216DAVISVP2,2013-08-21 00:46:00,
2013-08-20 19:51:00,89.3,73.9,29.63,SSW,195,1.0,13.0,60,0.00,,,0.00,WUHU216DAVISVP2,2013-08-21 00:51:00,
2013-08-20 19:56:00,89.0,73.6,29.63,SSE,153,0.0,13.0,60,0.00,,,0.00,WUHU216DAVISVP2,2013-08-21 00:56:00,
2013-08-20 20:01:00,88.7,73.8,29.63,SSW,195,0.0,11.0,61,0.00,,,0.00,WUHU216DAVISVP2,2013-08-21 01:01:00,
2013-08-20 20:06:00,88.3,73.4,29.63,South,182,0.0,17.0,61,0.00,,,0.00,WUHU216DAVISVP2,2013-08-21 01:06:00,
2013-08-20 20:11:00,88.0,73.6,29.63,South,186,0.0,17.0,62,0.00,,,0.00,WUHU216DAVISVP2,2013-08-21 01:11:00,
2013-08-20 20:16:00,87.8,73.4,29.63,South,188,0.0,14.0,62,0.00,,,0.00,WUHU216DAVISVP2,2013-08-21 01:16:00,
2013-08-20 20:19:00,87.7,73.4,29.63,South,190,2.0,18.0,62,0.00,,,0.00,WUHU216DAVISVP2,2013-08-21 01:19:00,
2013-08-20 20:24:00,87.4,73.1,29.63,South,184,4.0,18.0,62,0.00,,,0.00,WUHU216DAVISVP2,2013-08-21 01:24:00,
2013-08-20 20:29:00,87.1,73.3,29.63,South,173,6.0,12.0,63,0.00,,,0.00,WUHU216DAVISVP2,2013-08-21 01:29:00,
2013-08-20 20:34:00,87.0,73.2,29.63,South,175,1.0,15.0,63,0.00,,,0.00,WUHU216DAVISVP2,2013-08-21 01:34:00,
2013-08-20 20:39:00,86.7,72.9,29.63,SSE,159,4.0,15.0,63,0.00,,,0.00,WUHU216DAVISVP2,2013-08-21 01:39:00,
2013-08-20 20:44:00,86.6,72.8,29.64,SSE,161,2.0,13.0,63,0.00,,,0.00,WUHU216DAVISVP2,2013-08-21 01:44:00,
2013-08-20 20:49:00,86.4,72.6,29.64,SSW,209,2.0,13.0,63,0.00,,,0.00,WUHU216DAVISVP2,2013-08-21 01:49:00,
2013-08-20 20:54:00,86.3,73.0,29.64,South,187,5.0,15.0,64,0.00,,,0.00,WUHU216DAVISVP2,2013-08-21 01:54:00,
2013-08-20 20:59:00,86.1,72.8,29.64,SSW,195,0.0,19.0,64,0.00,,,0.00,WUHU216DAVISVP2,2013-08-21 01:59:00,
2013-08-20 21:04:00,85.8,72.5,29.64,SE,134,9.0,19.0,64,0.00,,,0.00,WUHU216DAVISVP2,2013-08-21 02:04:00,
2013-08-20 21:09:00,85.6,72.8,29.64,South,180,1.0,9.0,65,0.00,,,0.00,WUHU216DAVISVP2,2013-08-21 02:09:00,
2013-08-20 21:14:00,85.4,72.6,29.64,South,187,3.0,15.0,65,0.00,,,0.00,WUHU216DAVISVP2,2013-08-21 02:14:00,
2013-08-20 21:19:00,85.2,72.4,29.64,SSW,207,3.0,15.0,65,0.00,,,0.00,WUHU216DAVISVP2,2013-08-21 02:19:00,
2013-08-20 21:24:00,85.0,72.2,29.65,South,184,1.0,15.0,65,0.00,,,0.00,WUHU216DAVISVP2,2013-08-21 02:24:00,
2013-08-20 21:29:00,84.8,72.4,29.65,SSE,149,1.0,16.0,66,0.00,,,0.00,WUHU216DAVISVP2,2013-08-21 02:29:00,
2013-08-20 21:34:00,84.6,72.3,29.65,SW,223,1.0,17.0,66,0.00,,,0.00,WUHU216DAVISVP2,2013-08-21 02:34:00,
2013-08-20 21:39:00,84.3,72.4,29.65,South,176,0.0,17.0,67,0.00,,,0.00,WUHU216DAVISVP2,2013-08-21 02:39:00,
2013-08-20 21:44:00,84.1,72.2,29.65,SSW,198,4.0,13.0,67,0.00,,,0.00,WUHU216DAVISVP2,2013-08-21 02:44:00,
2013-08-20 21:49:00,83.8,71.9,29.65,SSE,155,4.0,12.0,67,0.00,,,0.00,WUHU216DAVISVP2,2013-08-21 02:49:00,
2013-08-20 21:54:00,83.6,72.2,29.65,SSE,163,0.0,13.0,68,0.00,,,0.00,WUHU216DAVISVP2,2013-08-21 02:54:00,
2013-08-20 21:59:00,83.4,72.0,29.66,South,172,0.0,13.0,68,0.00,,,0.00,WUHU216DAVISVP2,2013-08-21 02:59:00,
2013-08-20 22:04:00,83.1,72.1,29.65,South,177,0.0,12.0,69,0.00,,,0.00,WUHU216DAVISVP2,2013-08-21 03:04:00,
2013-08-20 22:09:00,82.9,71.9,29.65,South,186,3.0,12.0,69,0.00,,,0.00,WUHU216DAVISVP2,2013-08-21 03:09:00,
2013-08-20 22:14:00,82.8,71.8,29.65,SSE,167,0.0,11.0,69,0.00,,,0.00,WUHU216DAVISVP2,2013-08-21 03:14:00,
2013-08-20 22:19:00,82.6,72.1,29.65,South,174,4.0,11.0,70,0.00,,,0.00,WUHU216DAVISVP2,2013-08-21 03:19:00,
2013-08-20 22:24:00,82.4,71.9,29.65,South,191,4.0,16.0,70,0.00,,,0.00,WUHU216DAVISVP2,2013-08-21 03:24:00,
2013-08-20 22:29:00,82.2,71.7,29.65,South,186,3.0,16.0,70,0.00,,,0.00,WUHU216DAVISVP2,2013-08-21 03:29:00,
2013-08-20 22:34:00,82.0,71.5,29.65,South,173,2.0,10.0,70,0.00,,,0.00,WUHU216DAVISVP2,2013-08-21 03:34:00,
2013-08-20 22:39:00,81.8,71.7,29.65,SSE,165,0.0,9.0,71,0.00,,,0.00,WUHU216DAVISVP2,2013-08-21 03:39:00,
2013-08-20 22:44:00,81.6,71.5,29.65,SSW,195,2.0,17.0,71,0.00,,,0.00,WUHU216DAVISVP2,2013-08-21 03:44:00,
2013-08-20 22:49:00,81.4,71.3,29.65,SSW,200,5.0,17.0,71,0.00,,,0.00,WUHU216DAVISVP2,2013-08-21 03:49:00,
2013-08-20 22:54:00,81.2,71.1,29.65,South,182,0.0,13.0,71,0.00,,,0.00,WUHU216DAVISVP2,2013-08-21 03:54:00,
2013-08-20 22:59:00,81.1,71.4,29.65,South,173,0.0,13.0,72,0.00,,,0.00,WUHU216DAVISVP2,2013-08-21 03:59:00,
2013-08-20 23:01:00,81.0,71.3,29.65,South,186,0.0,13.0,72,0.00,,,0.00,WUHU216DAVISVP2,2013-08-21 04:01:00,
2013-08-20 23:06:00,80.9,71.2,29.65,South,173,5.0,12.0,72,0.00,,,0.00,WUHU216DAVISVP2,2013-08-21 04:06:00,
2013-08-20 23:11:00,80.7,71.0,29.65,South,174,0.0,12.0,72,0.00,,,0.00,WUHU216DAVISVP2,2013-08-21 04:11:00,
2013-08-20 23:16:00,80.6,71.3,29.65,SE,146,2.0,10.0,73,0.00,,,0.00,WUHU216DAVISVP2,2013-08-21 04:16:00,
2013-08-20 23:21:00,80.4,71.2,29.65,South,173,0.0,10.0,73,0.00,,,0.00,WUHU216DAVISVP2,2013-08-21 04:21:00,
2013-08-20 23:26:00,80.3,71.1,29.65,SSW,194,0.0,8.0,73,0.00,,,0.00,WUHU216DAVISVP2,2013-08-21 04:26:00,
2013-08-20 23:31:00,80.2,71.0,29.65,South,188,0.0,8.0,73,0.00,,,0.00,WUHU216DAVISVP2,2013-08-21 04:31:00,
2013-08-20 23:36:00,80.1,70.9,29.65,SSW,192,5.0,7.0,73,0.00,,,0.00,WUHU216DAVISVP2,2013-08-21 04:36:00,
2013-08-20 23:41:00,80.0,71.2,29.65,South,172,0.0,9.0,74,0.00,,,0.00,WUHU216DAVISVP2,2013-08-21 04:41:00,
2013-08-20 23:46:00,79.8,71.0,29.65,SSW,199,0.0,9.0,74,0.00,,,0.00,WUHU216DAVISVP2,2013-08-21 04:46:00,
2013-08-20 23:51:00,79.7,70.9,29.65,South,186,0.0,9.0,74,0.00,,,0.00,WUHU216DAVISVP2,2013-08-21 04:51:00,
2013-08-20 23:56:00,79.7,70.9,29.65,South,183,0.0,9.0,74,0.00,,,0.00,WUHU216DAVISVP2,2013-08-21 04:56:00,